This demonstration page uses our WeatherBlox Daily Observations layout. Learn more.

Left ArrowRight Arrow

39.12711, -84.51439

Hourly Observations for October 31, 2019

Temp ( °F °C ) Dew Point ( °F °C ) Humidity (%) Winds ( mph kmh ) Pressure ( in mb ) Visibility ( mi km ) Precip ( " mm )
12:42 am 00:42 Cloudy with Mist and Fog 58 14.4 58 14.4 100 100 Calm 29.85 1011 3 5 0.00 0.00
12:53 am 00:53 Cloudy with Mist and Fog 58 14.4 58 14.4 100 100 S 5 7 29.84 1011 4 6 0.00 0.00
1:18 am 01:18 Cloudy with Mist and Fog 59 15 58 14.4 96 96 SW 6 9 29.86 1011 5 8 0.00 0.00
1:53 am 01:53 Cloudy 59 15 58 14.4 96 96 E 3 6 29.80 1009 7 11 0.00 0.00
2:53 am 02:53 Cloudy 59 15 58 14.4 96 96 SSE 3 6 29.79 1009 7 11 0.00 0.00
3:53 am 03:53 Cloudy with Mist and Fog 59 15 58 14.4 96 96 Calm 29.76 1008 6 10 0.00 0.00
4:45 am 04:45 Cloudy with Mist and Fog 58 14.4 58 14.4 100 100 S 3 6 29.73 1007 2 3 0.00 0.00
4:53 am 04:53 Cloudy with Light Rain 58 14.4 58 14.4 100 100 SSW 3 6 29.73 1007 2 3 0.00 0.00
5:05 am 05:05 Cloudy with Light Rain 58 14.4 58 14.4 100 100 Calm 29.73 1007 2 3 0.00 0.00
5:17 am 05:17 Cloudy with Light Rain 58 14.4 58 14.4 100 100 SW 3 6 29.74 1007 4 6 0.00 0.00
5:53 am 05:53 Cloudy with Heavy Rain 58 14.4 58 14.4 100 100 Calm 29.72 1006 2 3 0.05 1.27
6:03 am 06:03 Cloudy with Light Rain 58 14.4 58 14.4 100 100 Calm 29.72 1006 3 5 0.01 0.25
6:13 am 06:13 Cloudy with Light Rain 59 15 58 14.4 96 96 Calm 29.71 1006 4 6 0.02 0.51
6:41 am 06:41 Cloudy with Rain 59 15 58 14.4 96 96 NE 3 6 29.69 1005 3 4 0.04 1.02
6:53 am 06:53 Cloudy with Rain 58 14.4 58 14.4 100 100 NE 6 9 29.66 1005 2 3 0.06 1.52
7:53 am 07:53 Cloudy with Heavy Rain 59 15 59 15 100 100 Calm 29.65 1004 2 3 0.21 5.33
8:00 am 08:00 Cloudy with Heavy Rain 59 15 58 14.4 96 96 Calm 29.63 1003 3 5 0.02 0.51
8:53 am 08:53 Cloudy with Heavy Rain 58 14.4 58 14.4 100 100 Calm 29.62 1003 2 3 0.28 7.11
9:19 am 09:19 Cloudy with Heavy Rain 59 15 58 14.4 96 96 W 6 9 29.62 1003 2 3 0.10 2.54
9:53 am 09:53 Cloudy with Rain 58 14.4 56 13.3 93 93 W 18 30 29.64 1004 7 11 0.13 3.30
10:53 am 10:53 Cloudy with Light Rain 53 11.7 51 10.6 93 93 WSW 12 19 29.66 1004 10 16 0.06 1.52
11:29 am 11:29 Cloudy with Light Rain 53 11.7 50 10 89 89 WSW 10 17 29.67 1005 6 10 0.02 0.51
11:53 am 11:53 Cloudy with Light Rain 52 11.1 49 9.4 89 89 WSW 17 28 29.67 1005 10 16 0.03 0.76
12:53 pm 12:53 Cloudy 49 9.4 45 7.2 86 86 WSW 17 28 29.73 1007 10 16 0.01 0.25
1:16 pm 13:16 Cloudy with Light Rain 47 8.3 43 6.1 86 86 SW 21 33 29.76 1008 8 13 0.00 0.00
1:53 pm 13:53 Cloudy with Light Rain 43 6.1 39 3.9 86 86 WSW 23 37 29.78 1008 10 16 0.00 0.00
2:22 pm 14:22 Cloudy with Light Rain 42 5.6 37 2.8 82 82 WSW 22 35 29.81 1009 10 16 0.00 0.00
2:53 pm 14:53 Cloudy 41 5 35 1.7 79 79 W 26 43 29.80 1009 10 16 0.00 0.00
3:53 pm 15:53 Cloudy with Light Rain 41 5 33 0.6 73 73 WSW 24 39 29.84 1011 10 16 0.00 0.00
4:53 pm 16:53 Cloudy 39 3.9 31 -0.6 73 73 WSW 18 30 29.90 1013 10 16 0.00 0.00
5:53 pm 17:53 Cloudy 38 3.3 30 -1.1 73 73 WSW 14 22 29.95 1014 10 16 0.00 0.00
6:53 pm 18:53 Cloudy 37 2.8 30 -1.1 76 76 W 20 31 30.02 1017 10 16 0.00 0.00
7:53 pm 19:53 Cloudy 37 2.8 28 -2.2 70 70 W 25 41 30.08 1019 10 16 0.00 0.00
8:53 pm 20:53 Cloudy 37 2.8 29 -1.7 73 73 WSW 20 31 30.13 1020 10 16 0.00 0.00
9:53 pm 21:53 Cloudy 37 2.8 29 -1.7 73 73 W 20 31 30.18 1022 10 16 0.00 0.00
10:53 pm 22:53 Cloudy 36 2.2 28 -2.2 73 73 W 10 17 30.19 1023 10 16 0.00 0.00
11:53 pm 23:53 Cloudy 36 2.2 28 -2.2 73 73 W 14 22 30.22 1023 10 16 0.00 0.00

Powered by AerisWeather